ACA202 CYUL-KBOS

Flight info

Callsign ACA202
Flight time N/A
Altitude 37000
Route VIRKA DCT ENE OOSHN5
Aircraft A20N/M-SDE2E3FGHIRWXY/LB1

Departure

Time 2026-05-05 01:43
Airport Montreal / Pierre Elliott Trudeau International Airport (CYUL)

Arrival

Time N/A
Airport Boston Logan International Airport (KBOS)
Time Latitude Longitude Altitude Speed Heading
2026-05-05 01:18 45.45887 -73.74438 107 ft 0 kts 176°
2026-05-05 01:33 45.45889 -73.74438 107 ft 1 kts 172°
2026-05-05 01:34 45.45894 -73.74439 107 ft 1 kts 159°
2026-05-05 01:34 45.45903 -73.74445 106 ft 2 kts 150°
2026-05-05 01:34 45.45914 -73.74454 106 ft 2 kts 141°
2026-05-05 01:34 45.45924 -73.74466 107 ft 2 kts 144°
2026-05-05 01:35 45.45933 -73.74475 108 ft 0 kts 148°
2026-05-05 01:37 45.45929 -73.74458 107 ft 9 kts 109°
2026-05-05 01:38 45.45969 -73.74285 103 ft 25 kts 54°
2026-05-05 01:38 45.46118 -73.74091 104 ft 31 kts 42°
2026-05-05 01:38 45.46282 -73.73872 108 ft 35 kts 43°
2026-05-05 01:38 45.46468 -73.73621 111 ft 38 kts 39°
2026-05-05 01:39 45.46669 -73.73369 109 ft 40 kts 43°
2026-05-05 01:39 45.46876 -73.73094 115 ft 42 kts 44°
2026-05-05 01:39 45.47090 -73.72811 119 ft 42 kts 43°
2026-05-05 01:39 45.47306 -73.72526 116 ft 42 kts 41°
2026-05-05 01:40 45.47503 -73.72266 122 ft 35 kts 42°
2026-05-05 01:40 45.47638 -73.72077 123 ft 6 kts 38°
2026-05-05 01:40 45.47685 -73.72026 125 ft 11 kts 37°
2026-05-05 01:40 45.47760 -73.71938 124 ft 17 kts 41°
2026-05-05 01:41 45.47816 -73.71784 127 ft 17 kts 117°
2026-05-05 01:41 45.47803 -73.71760 124 ft 0 kts 131°
2026-05-05 01:41 45.47766 -73.71703 120 ft 16 kts 137°
2026-05-05 01:41 45.47652 -73.71669 124 ft 18 kts 207°
2026-05-05 01:42 45.47585 -73.71753 126 ft 0 kts 218°
2026-05-05 01:42 45.47533 -73.71810 122 ft 37 kts 218°
2026-05-05 01:42 45.47140 -73.72317 117 ft 118 kts 223°
2026-05-05 01:43 45.46363 -73.73330 220 ft 177 kts 221°
2026-05-05 01:43 45.45386 -73.74639 663 ft 207 kts 223°
2026-05-05 01:43 45.44148 -73.75671 1721 ft 209 kts 196°
2026-05-05 01:43 45.42660 -73.75860 2804 ft 229 kts 179°
2026-05-05 01:44 45.41012 -73.75250 3504 ft 259 kts 165°
2026-05-05 01:44 45.39477 -73.73727 4498 ft 278 kts 143°
2026-05-05 01:44 45.38107 -73.71722 5548 ft 286 kts 139°
2026-05-05 01:44 45.36789 -73.69638 6609 ft 289 kts 137°
2026-05-05 01:45 45.35430 -73.67494 7612 ft 294 kts 138°
2026-05-05 01:45 45.34034 -73.65340 8613 ft 299 kts 138°
2026-05-05 01:45 45.32601 -73.63171 9620 ft 304 kts 139°
2026-05-05 01:45 45.31129 -73.60968 10447 ft 314 kts 139°
2026-05-05 01:46 45.29562 -73.58642 10842 ft 338 kts 139°
2026-05-05 01:46 45.27876 -73.56142 11251 ft 359 kts 138°
2026-05-05 01:46 45.26138 -73.53551 12063 ft 366 kts 138°
2026-05-05 01:46 45.24374 -73.50916 12932 ft 371 kts 138°
2026-05-05 01:47 45.22603 -73.48275 13746 ft 377 kts 138°
2026-05-05 01:47 45.20778 -73.45561 14443 ft 384 kts 138°
2026-05-05 01:47 45.18918 -73.42801 15174 ft 390 kts 138°
2026-05-05 01:47 45.17031 -73.40003 15890 ft 396 kts 138°
2026-05-05 01:48 45.15111 -73.37161 16605 ft 402 kts 138°
2026-05-05 01:48 45.13162 -73.34278 17303 ft 408 kts 138°
2026-05-05 01:48 45.11186 -73.31357 18014 ft 414 kts 138°
2026-05-05 01:48 45.09208 -73.28437 18645 ft 418 kts 138°
2026-05-05 01:49 45.07191 -73.25463 19342 ft 420 kts 137°
2026-05-05 01:49 45.05160 -73.22471 19991 ft 424 kts 137°
2026-05-05 01:49 45.03105 -73.19448 20660 ft 427 kts 137°
2026-05-05 01:49 45.01087 -73.16339 21306 ft 432 kts 133°
2026-05-05 01:50 44.99145 -73.13076 21951 ft 436 kts 133°
2026-05-05 01:50 44.97186 -73.09778 22590 ft 439 kts 133°
2026-05-05 01:50 44.95212 -73.06457 23218 ft 443 kts 133°
2026-05-05 01:50 44.93222 -73.03115 23756 ft 447 kts 133°
2026-05-05 01:51 44.91210 -72.99743 24241 ft 451 kts 133°
2026-05-05 01:51 44.89208 -72.96392 24720 ft 455 kts 133°
2026-05-05 01:51 44.87159 -72.92970 25197 ft 459 kts 133°
2026-05-05 01:51 44.85090 -72.89518 25669 ft 463 kts 133°
2026-05-05 01:52 44.83008 -72.86051 26125 ft 466 kts 133°
2026-05-05 01:52 44.80902 -72.82548 26592 ft 469 kts 133°
2026-05-05 01:52 44.78785 -72.79030 27050 ft 473 kts 133°
2026-05-05 01:52 44.76651 -72.75488 27497 ft 476 kts 133°
2026-05-05 01:53 44.74497 -72.71918 27915 ft 480 kts 132°
2026-05-05 01:53 44.72333 -72.68335 28336 ft 483 kts 132°
2026-05-05 01:53 44.70151 -72.64729 28726 ft 486 kts 132°
2026-05-05 01:53 44.67982 -72.61147 29095 ft 489 kts 132°
2026-05-05 01:54 44.65772 -72.57502 29487 ft 492 kts 132°
2026-05-05 01:54 44.63543 -72.53832 29849 ft 495 kts 132°
2026-05-05 01:54 44.61301 -72.50144 30176 ft 498 kts 132°
2026-05-05 01:54 44.59047 -72.46443 30478 ft 501 kts 132°
2026-05-05 01:55 44.56777 -72.42719 30806 ft 503 kts 132°
2026-05-05 01:55 44.54497 -72.38984 31183 ft 504 kts 132°
2026-05-05 01:55 44.52215 -72.35249 31583 ft 505 kts 132°
2026-05-05 01:55 44.49932 -72.31518 32013 ft 504 kts 131°
2026-05-05 01:56 44.47648 -72.27792 32437 ft 505 kts 131°
2026-05-05 01:56 44.45389 -72.24111 32827 ft 505 kts 131°
2026-05-05 01:56 44.43101 -72.20387 33243 ft 504 kts 131°
2026-05-05 01:56 44.40816 -72.16673 33634 ft 504 kts 131°
2026-05-05 01:57 44.38530 -72.12961 34000 ft 503 kts 131°
2026-05-05 01:57 44.36250 -72.09264 34391 ft 501 kts 131°
2026-05-05 01:57 44.33980 -72.05587 34757 ft 499 kts 131°
2026-05-05 01:57 44.31720 -72.01931 35104 ft 497 kts 132°
2026-05-05 01:58 44.29463 -71.98286 35488 ft 494 kts 132°
2026-05-05 01:58 44.27220 -71.94666 35848 ft 492 kts 132°
2026-05-05 01:58 44.24984 -71.91064 36171 ft 491 kts 132°
2026-05-05 01:58 44.22777 -71.87513 36502 ft 489 kts 132°
2026-05-05 01:59 44.20553 -71.83939 36682 ft 488 kts 132°
2026-05-05 01:59 44.18328 -71.80367 36786 ft 486 kts 132°
2026-05-05 01:59 44.13895 -71.73266 36803 ft 486 kts 132°
2026-05-05 02:00 44.09467 -71.66190 36808 ft 485 kts 132°
2026-05-05 02:00 44.05040 -71.59131 36794 ft 484 kts 132°
2026-05-05 02:01 44.00598 -71.52070 36806 ft 485 kts 133°
2026-05-05 02:01 43.96180 -71.45062 36808 ft 485 kts 132°
2026-05-05 02:02 43.91737 -71.38032 36808 ft 484 kts 132°
2026-05-05 02:02 43.87290 -71.31011 36802 ft 484 kts 132°
2026-05-05 02:03 43.82846 -71.24014 36804 ft 484 kts 133°
2026-05-05 02:03 43.78399 -71.17028 36801 ft 483 kts 133°
2026-05-05 02:04 43.73978 -71.10101 36802 ft 483 kts 133°
2026-05-05 02:04 43.69522 -71.03136 36789 ft 484 kts 133°
2026-05-05 02:05 43.65677 -70.97138 36795 ft 484 kts 133°